sat.trackr.live / text

‹ back to catalog

STARLINK-34339

NORAD 64160 · 2025-112Q

PAYLOAD ACTIVE UNKNOWN

§ Identity

Operator
Country
US
Launch date
2025-05-27
Launch site
AFWTR
Launch vehicle
Mass (kg)
RCS (m²)

Purposes: comms

External: N2YO · Heavens-Above · Gunter

§ Orbital elements

Epoch: 2026-05-25T03:45:57.228768Z

Period
95.64 min
Inclination
97.4484°
Eccentricity
0.0000911
Mean motion
15.05651756 rev/d
Perigee alt
548.9 km
Apogee alt
550.1 km
Semi-major
6,927.6 km
B*
3.7479e-4
RAAN
196.5207°
Arg perigee
157.2185°
Mean anomaly
202.9083°
Rev number
5,481

§ Raw data

STARLINK-343391 64160U 25112Q   26145.15691237  .00005353  00000+0  37479-3 0  99982 64160  97.4484 196.5207 0000911 157.2185 202.9083 15.05651756 54818

JSON: /api/v1/satellites/64160 · /tle

For live sub-satellite position, see the globe view (requires WebGL).

§ Visibility from observer

Set your observer location to see the next 7 days of passes ≥ 10°. The values pass through the URL so the page stays shareable.

No JS? Fill the form by hand. The geolocation button needs JavaScript.